#timestamp,LO_Frequency,Hit 
1504234815.7,286046998.8,N
1504234835.5,286046996.7,N
1504234855.4,286046998.6,N
1504234875.2,286047000.7,N
1504234895.0,286046998.4,N
1504234895.9,286046998.4,N
1504234915.8,286046995.8,N
1504234935.6,286046996.5,N
1504234955.4,286046997.6,N
1504234975.3,286046998.8,N
1504234995.1,286047002.4,N
1504234996.0,286047002.4,N
1504235015.8,286047000.3,N
1504235035.7,286047000.0,N
1504235055.5,286047004.1,N
1504235075.3,286047002.2,N
1504235095.1,286047004.1,N
1504235115.9,286047001.5,N
1504235135.7,286047001.7,N
1504235155.5,286047000.2,N
1504235175.4,286046998.1,N
1504235195.2,286047001.1,N
1504235215.0,286047001.8,N
1504235215.9,286047001.8,N
1504235235.8,286047004.1,N
1504235255.6,286047001.3,N
1504235275.4,286046999.5,N
1504235295.3,286046999.4,N
1504235315.1,286046995.2,N
1504235316.0,286046995.2,N
1504235335.8,286046995.1,N
1504235355.7,286046995.4,N
1504235375.5,286046996.2,N
1504235395.3,286046999.2,N
1504235415.2,286046997.1,N
1504235435.9,286046997.1,N
1504235455.7,286047000.9,N
1504235475.5,286047001.0,N
1504235495.4,286046998.9,N
1504235515.2,286047003.7,N
1504235535.0,286047003.8,N
1504235535.9,286047003.8,N
1504235555.8,286047007.6,N
1504235575.6,286047003.5,N
1504235595.4,286047000.9,N
1504235615.3,286046998.1,N
1504235635.1,286046998.0,N
1504235655.8,286046993.3,N
1504235675.7,286046994.2,N
1504235695.5,286046990.7,N
1504235715.3,286046989.6,N
1504235735.2,286046989.4,N
1504235755.9,286046986.0,P
1504235775.7,286046983.0,N
1504235795.6,286046980.8,N
1504235815.4,286046983.5,N
1504235835.2,286046981.0,P
1504235855.1,286046993.8,N
1504235856.0,286046993.8,N
1504235875.8,286046992.0,N
1504235895.6,286046993.0,N
1504235915.5,286046990.8,N
1504235935.3,286046991.5,N
1504235955.1,286046991.6,N
1504235975.9,286046990.7,N
1504235995.7,286046990.6,N
1504236015.5,286046990.2,N
1504236035.3,286046993.0,N
1504236055.2,286046993.5,N
1504236075.0,286046991.8,N
1504236075.9,286046991.8,N
1504236095.7,286046994.6,N
1504236115.6,286046990.1,P
1504236135.4,286046999.5,N
1504236155.2,286046995.8,N
1504236175.1,286046997.0,N
1504236176.0,286046997.0,N
1504236195.8,286046997.5,N
1504236215.7,286046990.2,P
1504236235.5,286046996.6,N
1504236255.3,286046998.5,N
1504236275.1,286047004.0,N
1504236295.9,286046999.9,N
1504236315.7,286047000.4,N
1504236335.5,286047006.0,N
1504236355.4,286047007.0,N
1504236375.2,286047009.4,N
1504236395.0,286047011.3,N
1504236395.9,286047011.3,N
1504236415.8,286047008.2,N
1504236435.6,286047013.0,N
1504236455.4,286047012.3,N
1504236475.3,286047010.0,N
1504236495.1,286047010.9,N
1504236496.0,286047010.9,N
1504236515.8,286047016.0,N
1504236535.7,286047018.3,N
1504236555.5,286047016.0,N
1504236575.3,286047019.7,N
1504236595.2,286047021.7,N
1504236615.9,286047020.9,N
1504236635.7,286047021.6,N
1504236655.5,286047022.1,N
1504236675.4,286047023.5,N
1504236695.2,286047023.1,N
1504236715.0,286047019.9,N
1504236715.9,286047019.9,N
1504236735.8,286047019.5,N
1504236755.6,286047018.3,N
1504236775.4,286047020.4,N
1504236795.3,286047021.7,N
1504236815.1,286047020.6,P
1504236835.8,286047004.9,N
1504236855.7,286047003.9,N
1504236875.5,286047001.4,N
1504236895.3,286047001.4,N
1504236915.2,286047003.2,N
1504236935.9,286047003.0,N
1504236955.7,286047004.6,N
1504236975.6,286047003.4,N
1504236995.4,286047003.5,N
1504237015.2,286047005.6,N
1504237035.0,286047010.8,N
1504237036.0,286047010.8,N
1504237055.8,286047005.7,N
1504237075.6,286047003.9,N
1504237095.4,286047005.2,N
1504237115.3,286047007.4,N
1504237135.1,286047006.4,N
1504237155.8,286047007.1,N
1504237175.7,286047008.0,N
1504237195.5,286047010.2,N
1504237215.3,286047006.5,N
1504237235.2,286047008.5,N
1504237255.9,286047012.3,N
1504237275.7,286047010.7,N
1504237295.6,286047007.9,N
1504237315.4,286047006.2,N
1504237335.2,286047004.7,N
1504237355.0,286047009.2,N
1504237356.0,286047009.2,N
1504237375.8,286047006.8,N
1504237395.6,286047005.0,N
1504237415.4,286047005.3,N
1504237435.3,286047004.6,N
1504237455.4,286047005.8,N
1504237475.3,286047007.0,N
1504237495.1,286047010.0,P
1504237515.8,286046998.7,N
1504237535.7,286046996.5,N
1504237555.5,286047000.8,N
1504237575.3,286046997.7,N
1504237595.2,286046996.2,N
1504237615.9,286046997.4,N
1504237635.7,286046993.5,N
1504237655.6,286046998.7,N
1504237675.4,286046997.0,N
1504237695.2,286046996.9,N
1504237715.0,286046996.5,N
1504237716.0,286046996.5,N
1504237735.8,286046997.5,N
1504237755.6,286046996.6,N
1504237775.4,286046998.2,N
1504237795.3,286047002.5,N
1504237815.1,286047005.4,N
1504237835.8,286047005.3,N
1504237855.7,286047005.9,N
1504237875.5,286047002.7,N
1504237895.3,286047001.9,N
1504237915.2,286047003.8,N
1504237935.9,286047003.5,N
1504237955.7,286047005.3,N
1504237975.6,286047004.5,N
1504237995.4,286046999.8,N
1504238015.2,286047001.2,N
1504238035.0,286046998.6,N
1504238036.0,286046998.6,N
1504238055.8,286046997.8,N
1504238075.6,286046995.5,N
1504238095.4,286046997.7,N
1504238115.3,286046996.2,N
1504238135.1,286046994.6,N
1504238155.8,286046991.9,N
1504238175.7,286046991.8,N
1504238195.5,286046990.9,N
1504238215.3,286046989.0,N
1504238235.2,286046987.0,N
1504238255.9,286046988.8,N
1504238275.7,286046985.8,N
1504238295.6,286046983.7,N
1504238315.4,286046986.8,N
1504238335.2,286046981.8,N
1504238355.1,286046979.2,N
1504238356.0,286046979.2,N
1504238375.8,286046978.6,N
1504238395.6,286046976.9,N
